Location: McFarlands Corners
(41.4117°N, 81.3382°W)
Time: 13:18:27
(UTC+00:00)

Tiros 1 despin weight - Pass Details

Date: 14 November 2024
Orbit: 570 x 610 km, 48.2° (Epoch: 01 December)

Event Time Altitude Azimuth Distance (km) Brightness Sun altitude
Exits shadow 09:13:06 21° 66° (ENE) 1,365 ? -33.8°
Drops below altitude 10° 09:14:35 10° 64° (ENE) 1,926 ? -33.5°
Sets 09:16:51 0° 63° (ENE) 2,823 ? -33.1°
